GW1640 Weather Reports


time (UTC)temp
C
wind
direction
speed
KPH
gust
KPH
rain 1hr
cm
rain 24hr
cm
rain mn
cm
humidity
%
barometer
mb
20260505101533 23 265 3.2 4.8 0.00 0.00 0.00 39 1005.6
20260505100528 23 5 6.4 16.1 0.00 0.00 0.00 39 1005.7
20260505095523 23 100 4.8 9.7 0.00 0.00 0.00 42 1005.8
20260505094517 23 9 4.8 12.9 0.00 0.00 0.00 40 1005.8
20260505093532 23 35 6.4 14.5 0.00 0.00 0.00 44 1006.1
20260505092528 23 62 6.4 11.3 0.00 0.00 0.00 47 1006.1
20260505091522 22 257 6.4 16.1 0.00 0.00 0.00 45 1006.2
20260505090517 22 21 4.8 9.7 0.00 0.00 0.00 46 1006.3
20260505085533 21 305 4.8 11.3 0.00 0.00 0.00 48 1006.3
20260505084528 21 289 6.4 12.9 0.00 0.00 0.00 49 1006.4
20260505083523 21 290 3.2 4.8 0.00 0.00 0.00 50 1006.5
20260505081533 21 254 6.4 11.3 0.00 0.00 0.00 51 1006.6
20260505080529 21 288 3.2 6.4 0.00 0.00 0.00 52 1006.7
20260505075525 20 279 1.6 4.8 0.00 0.00 0.00 54 1006.7
20260505074519 20 359 3.2 6.4 0.00 0.00 0.00 53 1006.9
20260505073534 20 58 0.0 1.6 0.00 0.00 0.00 57 1006.9
20260505072629 20 25 3.2 4.8 0.00 0.00 0.00 57 1006.9
20260505070518 19 62 1.6 4.8 0.00 0.00 0.00 62 1007.1
20260505065533 18 45 1.6 4.8 0.00 0.00 0.00 66 1007.2
20260505064528 18 44 3.2 4.8 0.00 0.00 0.00 68 1007.3
20260505063524 17 301 0.0 3.2 0.00 0.00 0.00 69 1007.4
20260505062519 16 285 0.0 1.6 0.00 0.00 0.00 72 1007.4
20260505061533 16 354 1.6 3.2 0.00 0.00 0.00 72 1007.4
20260505060629 15 23 1.6 3.2 0.00 0.00 0.00 77 1007.4
20260505055623 14 280 0.0 1.6 0.00 0.00 0.00 81 1007.4
20260505054638 13 282 1.6 4.8 0.00 0.00 0.00 83 1007.4
20260505053533 12 108 1.6 3.2 0.00 0.00 0.00 84 1007.6
20260505052528 12 0.0 0.0 0.00 0.00 0.00 85 1007.4
20260505051643 12 107 0.0 1.6 0.00 0.00 0.00 86 1007.6
20260505050518 11 0.0 0.0 0.00 0.00 0.00 87 1007.6
20260505041532 11 37 3.2 6.4 0.00 0.00 0.00 88 1007.6
20260505040626 10 250 4.8 6.4 0.00 0.00 0.00 88 1007.6
20260505035521 11 158 1.6 4.8 0.00 0.00 0.00 87 1007.4
20260505034516 11 81 1.6 1.6 0.00 0.00 0.00 87 1007.5
20260505033531 11 59 0.0 1.6 0.00 0.00 0.00 87 1007.6
20260505032526 11 78 3.2 4.8 0.00 0.00 0.00 89 1007.8
20260505031520 11 119 1.6 3.2 0.00 0.00 0.00 86 1007.9
20260505030516 11 125 1.6 3.2 0.00 0.00 0.00 87 1007.8
20260505025531 11 129 0.0 1.6 0.00 0.00 0.00 86 1007.9
20260505024525 11 129 1.6 1.6 0.00 0.00 0.00 86 1008.1
20260505023520 11 128 4.8 4.8 0.00 0.00 0.00 86 1008.1
20260505022536 11 137 3.2 4.8 0.00 0.00 0.00 85 1008.1
20260505021531 11 136 4.8 6.4 0.00 0.00 0.00 84 1008.2
20260505020525 11 0.0 0.0 0.00 0.00 0.00 85 1008.2
20260505015520 11 132 1.6 1.6 0.00 0.00 0.00 86 1008.1
20260505014516 11 133 0.0 1.6 0.00 0.00 0.00 85 1008.2
20260505013531 11 132 1.6 3.2 0.00 0.00 0.00 84 1008.2
20260505012526 11 131 1.6 3.2 0.00 0.00 0.00 84 1008.3
20260505011521 11 125 1.6 3.2 0.00 0.00 0.00 84 1008.3
20260505010516 11 125 1.6 3.2 0.00 0.00 0.00 83 1008.5
20260505005530 11 0.0 0.0 0.00 0.00 0.00 83 1008.5
20260505004526 11 126 0.0 1.6 0.00 0.00 0.00 82 1008.5
20260505003521 11 126 3.2 4.8 0.00 0.00 0.00 83 1008.6
20260505002516 11 26 1.6 3.2 0.00 0.00 0.00 82 1008.7
20260505001531 11 25 0.0 3.2 0.00 0.00 0.00 81 1008.8
20260505000526 11 349 3.2 4.8 0.00 0.00 0.00 81 1008.9
20260504235521 11 241 0.0 1.6 0.00 0.00 0.00 80 1008.8
20260504234516 12 240 1.6 1.6 0.00 0.00 0.00 79 1009.0
20260504233531 12 241 3.2 4.8 0.00 0.00 0.00 79 1009.0
20260504231520 12 239 1.6 3.2 0.00 0.00 0.00 74 1009.3
20260504230515 13 248 1.6 3.2 0.00 0.00 0.00 74 1009.5
20260504225531 14 224 3.2 4.8 0.00 0.00 0.00 71 1009.6
20260504224526 15 115 1.6 4.8 0.00 0.00 0.00 69 1009.7
20260504223521 15 29 3.2 9.7 0.00 0.00 0.00 71 1009.8
20260504222515 14 77 4.8 9.7 0.00 0.00 0.00 74 1009.8
20260504221530 13 115 11.3 16.1 0.00 0.00 0.00 75 1009.7
20260504220525 13 130 6.4 11.3 0.00 0.00 0.00 75 1009.7
20260504215520 13 123 9.7 14.5 0.00 0.00 0.00 75 1009.7
20260504214535 13 128 8.0 11.3 0.00 0.00 0.00 75 1009.7
20260504213530 13 122 6.4 11.3 0.00 0.00 0.00 77 1009.7
20260504212524 14 152 1.6 3.2 0.00 0.00 0.00 79 1009.8
20260504211520 14 0.0 0.0 0.00 0.00 0.00 77 1009.7
20260504210515 15 130 1.6 4.8 0.00 0.00 0.00 76 1009.8
20260504205530 15 63 1.6 3.2 0.00 0.00 0.00 74 1009.9
20260504204525 15 155 4.8 9.7 0.00 0.00 0.00 70 1010.1
20260504203520 15 77 6.4 9.7 0.00 0.00 0.00 70 1010.1
20260504202655 15 118 0.0 1.6 0.00 0.00 0.00 66 1010.3
20260504200526 15 123 3.2 3.2 0.00 0.00 0.00 65 1010.3
20260504195521 15 122 1.6 3.2 0.00 0.00 0.00 64 1010.1
20260504193651 16 115 3.2 4.8 0.00 0.00 0.00 61 1010.2
20260504192526 16 99 1.6 4.8 0.00 0.00 0.00 61 1010.2
20260504191520 17 113 1.6 3.2 0.00 0.00 0.00 57 1010.2
20260504190515 18 67 1.6 4.8 0.00 0.00 0.00 53 1010.2
20260504185531 17 292 0.0 1.6 0.00 0.00 0.00 53 1010.1
20260504184526 18 300 3.2 4.8 0.00 0.00 0.00 50 1009.9
20260504183521 18 313 1.6 4.8 0.00 0.00 0.00 47 1009.7
20260504182516 20 39 1.6 3.2 0.00 0.00 0.00 46 1009.6
20260504181552 21 48 0.0 3.2 0.00 0.00 0.00 43 1009.5
20260504180526 21 52 4.8 6.4 0.00 0.00 0.00 42 1009.5
20260504175521 22 28 4.8 9.7 0.00 0.00 0.00 38 1009.4
20260504174516 23 8 4.8 9.7 0.00 0.00 0.00 34 1009.4
20260504173530 24 1 3.2 4.8 0.00 0.00 0.00 33 1009.6
20260504172526 24 1 4.8 6.4 0.00 0.00 0.00 33 1009.6
20260504171520 24 23 4.8 6.4 0.00 0.00 0.00 32 1009.6
20260504170516 25 355 1.6 4.8 0.00 0.00 0.00 31 1009.7
20260504150535 25 284 8.0 12.9 0.00 0.00 0.00 31 1010.2
20260504140524 25 256 4.8 9.7 0.00 0.00 0.00 32 1010.6
20260504130533 26 326 6.4 12.9 0.00 0.00 0.00 31 1011.2